Skip Page Navigation
NASA JPL Caltech
NASA Logo - Jet Propulsion Laboratory + View the NASA Portal
+ Center for Near-Earth Object Studies
JPL Home Earth Solar System Stars & Galaxies Technology
JPL Solar System Dynamics
BODIES ORBITS EPHEMERIDES TOOLS PHYSICAL DATA DISCOVERY FAQ SITE MAP
IMPORTANT: The SSD Announcement email list is now available. Major changes are coming in the near future, including possible hostname and/or URL changes. To be notified of such changes, subscribe to this email list.

Please visit this page for more details.


JPL Small-Body Database Browser
Search: [ help ]  
452940 (2006 XQ10)
Classification: Main-belt Asteroid          SPK-ID: 2452940
Ephemeris | Orbit Diagram | Orbital Elements | Mission Design | Physical Parameters | Discovery Circumstances | Close-Approach Data ]

[ show orbit diagram ]
Orbital Elements at Epoch 2458600.5 (2019-Apr-27.0) TDB
Reference: JPL 11 (heliocentric ecliptic J2000)
 Element Value Uncertainty (1-sigma)   Units 
e .2640996537624468 7.7657e-08  
a 2.716382443655937 3.28e-08 au
q 1.998986780800015 2.249e-07 au
i 6.994975500110256 6.73e-06 deg
node 293.2612844285503 5.4139e-05 deg
peri 211.8911495690466 5.7219e-05 deg
M 242.9878677927352 1.7375e-05 deg
tp 2459132.012143864520
(2020-Oct-09.51214386)
8.5344e-05 TDB
period 1635.252415128178
4.48
2.9618e-05
8.109e-08
d
yr
n .2201494990434132 3.9875e-09 deg/d
Q 3.433778106511859 4.1463e-08 au
  Orbit Determination Parameters
   # obs. used (total)      174  
   data-arc span      5598 days (15.33 yr)  
   first obs. used      2004-07-17  
   last obs. used      2019-11-14  
   planetary ephem.      DE431  
   SB-pert. ephem.      SB431-N16  
   condition code      0  
   norm. resid. RMS      .5803  
   source      ORB  
   producer      Otto Matic  
   solution date      2019-Dec-05 02:35:21  

Additional Information
 Earth MOID = 1.01587 au 
 Jupiter MOID = 1.63102 au 
 T_jup = 3.299 
[ show covariance matrix ]

Ephemeris | Orbit Diagram | Orbital Elements | Mission Design | Physical Parameters | Discovery Circumstances | Close-Approach Data ]

Physical Parameter Table
Parameter Symbol Value Units Sigma Reference Notes
absolute magnitude H 16.8   n/a MPO456158  

452940 (2006 XQ10)          Discovered 2006-Dec-09 by Spacewatch at Kitt Peak
Reference: Last Updated: 2016-01-04

[ show close-approach data ]
Ephemeris | Orbit Diagram | Orbital Elements | Mission Design | Physical Parameters | Discovery Circumstances | Close-Approach Data ]
ABOUT SSD CREDITS/AWARDS PRIVACY/COPYRIGHT GLOSSARY LINKS
FirstGov 2019-Dec-10 16:27 UT
(server date/time)  
NASA Home Page
Site Manager:   Ryan S. Park
Webmaster  Alan B. Chamberlin